Terug naar catalogus

GALAXY 32

ActiefCommunicatieGEO
NORAD 54244·PAYLOAD·🇺🇸 United States

Gelanceerd Nov 12, 2022 vanaf Cape Canaveral Space Force Station

Loading…

TLE

VersSource: CelesTrak SupGP

Epoch: Sep 14, 2026, 00:00 UTC

1 54244C 22153B   26257.00000000 -.00000108  00000+0  00000+0 0  2579
2 54244   0.0010 226.6901 0000442 210.6189 184.6806  1.00272392    15

Volg GALAXY 32 in realtime met AllMySat

Download on the App Store